This demonstration page uses our WeatherBlox Daily Observations layout. Learn more.

Left ArrowRight Arrow

34.74481, -87.66753

Hourly Observations for May 2, 2017

Temp ( °F °C ) Dew Point ( °F °C ) Humidity (%) Winds ( mph kmh ) Pressure ( in mb ) Visibility ( mi km ) Precip ( " mm )
12:53 am 00:53 Clear 56 13.3 42 5.6 60 60 W 5 7 29.96 1015 10 16 0.00 0.00
1:53 am 01:53 Clear 51 10.6 44 6.7 77 77 Calm 29.97 1015 10 16 0.00 0.00
2:53 am 02:53 Clear 49 9.4 45 7.2 86 86 Calm 29.98 1015 10 16 0.00 0.00
3:53 am 03:53 Clear 48 8.9 44 6.7 86 86 Calm 29.98 1015 10 16 0.00 0.00
4:53 am 04:53 Clear 47 8.3 44 6.7 90 90 Calm 30.00 1016 10 16 0.00 0.00
5:53 am 05:53 Clear 46 7.8 44 6.7 93 93 Calm 30.02 1017 10 16 0.00 0.00
6:53 am 06:53 Sunny 49 9.4 46 7.8 90 90 Calm 30.02 1017 10 16 0.00 0.00
7:53 am 07:53 Sunny 56 13.3 49 9.4 77 77 SSE 3 6 30.04 1017 10 16 0.00 0.00
8:53 am 08:53 Sunny 62 16.7 47 8.3 58 58 Calm 30.05 1018 10 16 0.00 0.00
9:53 am 09:53 Sunny 68 20 46 7.8 45 45 VRB 5 7 30.05 1018 10 16 0.00 0.00
10:53 am 10:53 Sunny 71 21.7 41 5 34 34 W 6 9 30.05 1018 10 16 0.00 0.00
11:53 am 11:53 Sunny 73 22.8 41 5 32 32 W 9 15 30.04 1017 10 16 0.00 0.00
12:53 pm 12:53 Sunny 76 24.4 42 5.6 30 30 W 10 17 30.02 1017 10 16 0.00 0.00
1:53 pm 13:53 Sunny 78 25.6 44 6.7 30 30 WSW 12 19 30.00 1016 10 16 0.00 0.00
2:53 pm 14:53 Sunny 78 25.6 44 6.7 30 30 W 13 20 30.00 1016 10 16 0.00 0.00
3:53 pm 15:53 Sunny 79 26.1 45 7.2 30 30 W 15 24 29.99 1016 10 16 0.00 0.00
4:53 pm 16:53 Sunny 79 26.1 45 7.2 30 30 WNW 7 11 29.99 1016 10 16 0.00 0.00
5:53 pm 17:53 Sunny 75 23.9 45 7.2 34 34 WSW 10 17 29.99 1016 10 16 0.00 0.00
6:53 pm 18:53 Sunny 74 23.3 47 8.3 38 38 WSW 5 7 29.98 1015 10 16 0.00 0.00
7:53 pm 19:53 Clear 67 19.4 50 10 55 55 WSW 5 7 29.99 1016 10 16 0.00 0.00
8:53 pm 20:53 Clear 60 15.6 51 10.6 72 72 Calm 30.01 1016 10 16 0.00 0.00
9:53 pm 21:53 Clear 61 16.1 52 11.1 72 72 Calm 30.03 1017 10 16 0.00 0.00
10:53 pm 22:53 Clear 57 13.9 51 10.6 81 81 Calm 30.04 1017 10 16 0.00 0.00
11:53 pm 23:53 Clear 55 12.8 51 10.6 87 87 Calm 30.03 1017 10 16 0.00 0.00

Powered by AerisWeather